Tracking 28790 objects as of 19-Apr-2024
HD Live streaming from Space Station
objects crossing your sky now

SL-8 DEB

Track SL-8 DEB now!
10-day predictions


NORAD ID: 12151
Int'l Code: 1981-006C
Perigee: 985.2 km
Apogee: 1,000.0 km
Inclination: 65.8 °
Period: 104.8 minutes
Semi major axis: 7363 km
RCS: 0.545 m2 (medium)
Launch date: January 21, 1981
Source: Commonwealth of Independent States (former USSR) (CIS)
Launch site: PLESETSK MISSILE AND SPACE COMPLEX (PKMTR)

Note: This is SATELLITE DEBRIS
Your satellite tracking list
Your tracking list is empty




NASA's NSSDC Master Catalog

Two Line Element Set (TLE):
1 12151U 81006C   24109.61150244  .00000026  00000-0  11373-3 0  9990
2 12151  65.8232 194.0995 0010050 179.3024 291.8736 13.73951697168346
Source of the keplerian elements: AFSPC